Tracking 35237 objects as of 6-Sep-2026
HD Live streaming from Space Station
objects crossing your sky now

STARLINK-5321

Track STARLINK-5321 now!
10-day predictions
STARLINK-5321 is classified as:


NORAD ID: 55302
Int'l Code: 2023-010AK
Launch date: January 19, 2023
Source: United States (US)
Launch site: AIR FORCE WESTERN TEST RANGE (AFWTR)
Your satellite tracking list
Your tracking list is empty




NASA's NSSDC Master Catalog

Two Line Element Set (TLE):
1 55302U 23010AK  26249.49056287 -.00000187  00000-0 -79040-5 0  9998
2 55302  69.9984 288.4980 0003464 271.5216  88.5546 14.98330744200351
Source of the keplerian elements: AFSPC